NOZ51J LICC-ENGM

Flight info

Callsign NOZ51J
Flight time N/A
Altitude 38000
Route BUDIN DCT SABAD DCT UPEGU DCT APRAQ/N0451F390 DCT HDO/N0447F380 DCT SALLO DCT SABAK L997 LUNIP
Aircraft B38M/M-SDE2E3GHILRWXY/LB2

Departure

Time 2026-04-28 19:06
Airport Catania-Fontanarossa Airport (LICC)

Arrival

Time N/A
Airport Oslo-Gardermoen International Airport (ENGM)
Time Latitude Longitude Altitude Speed Heading
2026-04-28 18:19 37.46922 15.06263 34 ft 0 kts 316°
2026-04-28 18:56 37.46907 15.06281 34 ft 4 kts 319°
2026-04-28 18:56 37.46886 15.06304 34 ft 4 kts 316°
2026-04-28 18:56 37.46872 15.06322 34 ft 4 kts 317°
2026-04-28 18:57 37.46851 15.06344 34 ft 4 kts 324°
2026-04-28 18:57 37.46833 15.06361 34 ft 4 kts 310°
2026-04-28 18:57 37.46823 15.06389 34 ft 4 kts 275°
2026-04-28 18:57 37.46822 15.06405 34 ft 0 kts 271°
2026-04-28 19:02 37.46822 15.06404 34 ft 1 kts 271°
2026-04-28 19:02 37.46822 15.06375 34 ft 6 kts 265°
2026-04-28 19:02 37.46814 15.06286 34 ft 14 kts 263°
2026-04-28 19:02 37.46801 15.06126 34 ft 21 kts 264°
2026-04-28 19:03 37.46785 15.05937 34 ft 23 kts 264°
2026-04-28 19:03 37.46768 15.05733 34 ft 25 kts 263°
2026-04-28 19:03 37.46757 15.05590 34 ft 13 kts 264°
2026-04-28 19:03 37.46746 15.05470 34 ft 15 kts 264°
2026-04-28 19:04 37.46735 15.05346 34 ft 9 kts 263°
2026-04-28 19:04 37.46694 15.05284 35 ft 10 kts 218°
2026-04-28 19:04 37.46638 15.05224 36 ft 11 kts 220°
2026-04-28 19:04 37.46575 15.05206 38 ft 7 kts 161°
2026-04-28 19:05 37.46564 15.05270 36 ft 14 kts 83°
2026-04-28 19:05 37.46599 15.05697 36 ft 89 kts 84°
2026-04-28 19:05 37.46692 15.06783 39 ft 159 kts 83°
2026-04-28 19:05 37.46818 15.08327 531 ft 188 kts 83°
2026-04-28 19:06 37.47009 15.10039 1396 ft 204 kts 80°
2026-04-28 19:06 37.47176 15.11213 1989 ft 209 kts 81°
2026-04-28 19:06 37.47518 15.13676 3090 ft 215 kts 81°
2026-04-28 19:06 37.47779 15.15553 3828 ft 225 kts 81°
2026-04-28 19:07 37.48060 15.17567 4449 ft 241 kts 81°
2026-04-28 19:07 37.48360 15.19722 5024 ft 258 kts 81°
2026-04-28 19:07 37.48676 15.21988 5797 ft 264 kts 81°
2026-04-28 19:07 37.48995 15.24264 6732 ft 265 kts 80°
2026-04-28 19:08 37.49323 15.26586 7432 ft 275 kts 77°
2026-04-28 19:08 37.50112 15.28823 7944 ft 289 kts 50°
2026-04-28 19:08 37.51645 15.30425 8809 ft 286 kts 30°
2026-04-28 19:08 37.53343 15.31767 9623 ft 292 kts 30°
2026-04-28 19:09 37.55061 15.33133 10361 ft 296 kts 29°
2026-04-28 19:09 37.56967 15.34134 10860 ft 306 kts
2026-04-28 19:09 37.59151 15.33960 11248 ft 319 kts 343°
2026-04-28 19:09 37.61327 15.33235 11657 ft 336 kts 345°
2026-04-28 19:10 37.63650 15.32543 12170 ft 348 kts 345°
2026-04-28 19:10 37.66012 15.31852 13019 ft 349 kts 345°
2026-04-28 19:10 37.68399 15.31159 13785 ft 355 kts 345°
2026-04-28 19:10 37.70795 15.30466 14508 ft 359 kts 345°
2026-04-28 19:11 37.73264 15.29751 15277 ft 362 kts 345°
2026-04-28 19:11 37.75598 15.29075 15995 ft 366 kts 345°
2026-04-28 19:11 37.78095 15.28353 16719 ft 370 kts 345°
2026-04-28 19:11 37.80615 15.27623 17442 ft 373 kts 344°
2026-04-28 19:12 37.83157 15.26887 18159 ft 377 kts 344°
2026-04-28 19:12 37.85728 15.26142 18783 ft 381 kts 344°
2026-04-28 19:12 37.88314 15.25391 19404 ft 383 kts 344°
2026-04-28 19:12 37.90923 15.24633 20020 ft 385 kts 343°
2026-04-28 19:13 37.93543 15.23872 20640 ft 388 kts 343°
2026-04-28 19:13 37.96191 15.23101 21207 ft 391 kts 343°
2026-04-28 19:13 37.98854 15.22325 21783 ft 395 kts 343°
2026-04-28 19:13 38.01543 15.21542 22366 ft 398 kts 343°
2026-04-28 19:14 38.04249 15.20752 22955 ft 400 kts 343°
2026-04-28 19:14 38.06976 15.19956 23476 ft 404 kts 343°
2026-04-28 19:14 38.09720 15.19153 24000 ft 406 kts 345°
2026-04-28 19:14 38.12497 15.18341 24383 ft 412 kts 345°
2026-04-28 19:15 38.15299 15.17522 24870 ft 413 kts 345°
2026-04-28 19:15 38.18066 15.16711 25324 ft 416 kts 345°
2026-04-28 19:15 38.20935 15.15870 25775 ft 418 kts 345°
2026-04-28 19:15 38.22817 15.15318 26076 ft 420 kts 345°
2026-04-28 19:16 38.26589 15.14210 26638 ft 423 kts 345°
2026-04-28 19:16 38.29475 15.13362 27074 ft 426 kts 344°
2026-04-28 19:16 38.32365 15.12511 27500 ft 428 kts 344°
2026-04-28 19:16 38.35265 15.11657 27906 ft 430 kts 344°
2026-04-28 19:17 38.38200 15.10792 28323 ft 433 kts 344°
2026-04-28 19:17 38.41139 15.09926 28731 ft 435 kts 344°
2026-04-28 19:17 38.44097 15.09052 29121 ft 437 kts 344°
2026-04-28 19:17 38.47075 15.08197 29512 ft 440 kts 347°
2026-04-28 19:18 38.50154 15.07958 29928 ft 445 kts 356°
2026-04-28 19:18 38.53256 15.07871 30259 ft 448 kts 355°
2026-04-28 19:18 38.56386 15.07770 30550 ft 450 kts 355°
2026-04-28 19:18 38.59524 15.07680 30892 ft 452 kts 355°
2026-04-28 19:19 38.62680 15.07592 31217 ft 454 kts 355°
2026-04-28 19:19 38.65840 15.07505 31543 ft 455 kts 355°
2026-04-28 19:19 38.69004 15.07418 31993 ft 453 kts 355°
2026-04-28 19:19 38.72107 15.07333 32463 ft 451 kts 355°
2026-04-28 19:20 38.75293 15.07246 32905 ft 450 kts 356°
2026-04-28 19:20 38.78376 15.07160 33316 ft 450 kts 355°
2026-04-28 19:20 38.81503 15.07074 33741 ft 449 kts 356°
2026-04-28 19:20 38.84618 15.06988 34145 ft 448 kts 355°
2026-04-28 19:21 38.87725 15.06902 34490 ft 447 kts 355°
2026-04-28 19:21 38.90841 15.06816 34806 ft 447 kts 355°
2026-04-28 19:21 38.93950 15.06730 35105 ft 447 kts 355°
2026-04-28 19:21 38.97058 15.06644 35421 ft 447 kts 355°
2026-04-28 19:22 39.00173 15.06558 35723 ft 447 kts 355°
2026-04-28 19:22 39.02227 15.06501 35917 ft 447 kts 355°
2026-04-28 19:22 39.06378 15.06385 36293 ft 447 kts 355°
2026-04-28 19:22 39.09478 15.06299 36576 ft 447 kts 355°
2026-04-28 19:23 39.12599 15.06213 36855 ft 447 kts 355°
2026-04-28 19:23 39.15713 15.06126 37128 ft 446 kts 355°
2026-04-28 19:23 39.18815 15.06040 37397 ft 446 kts 355°
2026-04-28 19:23 39.21920 15.05953 37644 ft 446 kts 355°
2026-04-28 19:24 39.25020 15.05867 37897 ft 446 kts 355°
2026-04-28 19:24 39.28127 15.05780 38066 ft 446 kts 355°
2026-04-28 19:24 39.34324 15.05607 38076 ft 444 kts 355°
2026-04-28 19:25 39.40506 15.05434 38067 ft 444 kts 355°
2026-04-28 19:25 39.46680 15.05261 38069 ft 444 kts 355°
2026-04-28 19:26 39.52853 15.05087 38061 ft 444 kts 355°
2026-04-28 19:26 39.59034 15.04913 38065 ft 444 kts 355°
2026-04-28 19:27 39.65206 15.04739 38066 ft 444 kts 355°
2026-04-28 19:27 39.71377 15.04564 38067 ft 443 kts 355°
2026-04-28 19:28 39.77557 15.04390 38065 ft 443 kts 355°
2026-04-28 19:28 39.83679 15.04216 38069 ft 443 kts 355°
2026-04-28 19:29 39.88843 15.04069 38072 ft 443 kts 355°
2026-04-28 19:29 39.96011 15.03865 38067 ft 443 kts 355°
2026-04-28 19:30 40.02166 15.03689 38067 ft 442 kts 355°
2026-04-28 19:30 40.08326 15.03514 38068 ft 442 kts 355°
2026-04-28 19:31 40.14481 15.03337 38067 ft 442 kts 355°
2026-04-28 19:31 40.20625 15.03162 38060 ft 442 kts 355°
2026-04-28 19:32 40.26778 15.02985 38071 ft 441 kts 355°
2026-04-28 19:32 40.32913 15.02808 38062 ft 441 kts 355°
2026-04-28 19:33 40.39054 15.02631 38058 ft 441 kts 355°
2026-04-28 19:33 40.45193 15.02454 38056 ft 441 kts 355°
2026-04-28 19:34 40.51316 15.02276 38054 ft 440 kts 355°
2026-04-28 19:34 40.57405 15.02100 38049 ft 440 kts 355°
2026-04-28 19:35 40.63529 15.01922 38053 ft 440 kts 355°
2026-04-28 19:35 40.69650 15.01744 38051 ft 440 kts 355°
2026-04-28 19:36 40.75774 15.01566 38046 ft 440 kts 355°
2026-04-28 19:36 40.81898 15.01387 38066 ft 440 kts 355°
2026-04-28 19:37 40.85993 15.01267 38057 ft 440 kts 355°
2026-04-28 19:37 40.94135 15.01029 38069 ft 440 kts 355°
2026-04-28 19:38 41.00257 15.00849 38062 ft 440 kts 355°
2026-04-28 19:38 41.06371 15.00669 38065 ft 440 kts 355°
2026-04-28 19:39 41.12491 15.00488 38069 ft 440 kts 355°
2026-04-28 19:39 41.18616 15.00308 38066 ft 440 kts 355°
2026-04-28 19:40 41.24737 15.00126 38057 ft 440 kts 355°
2026-04-28 19:40 41.30862 14.99946 38064 ft 440 kts 355°
2026-04-28 19:41 41.35943 14.99795 38059 ft 440 kts 355°
2026-04-28 19:41 41.43054 14.99583 38059 ft 440 kts 355°
2026-04-28 19:42 41.49185 14.99400 38058 ft 440 kts 355°
2026-04-28 19:42 41.54312 14.99247 38057 ft 440 kts 355°
2026-04-28 19:43 41.60387 14.99066 38057 ft 440 kts 355°
2026-04-28 19:43 41.66503 14.98882 38047 ft 440 kts 355°
2026-04-28 19:44 41.72627 14.98698 38050 ft 440 kts 355°
2026-04-28 19:44 41.78739 14.98515 38044 ft 440 kts 355°
2026-04-28 19:45 41.84855 14.98330 38038 ft 440 kts 355°
2026-04-28 19:45 41.90992 14.98145 38041 ft 440 kts 355°
2026-04-28 19:46 41.97114 14.97960 38036 ft 440 kts 355°
2026-04-28 19:46 42.03249 14.97774 38046 ft 440 kts 355°
2026-04-28 19:47 42.09391 14.97587 38035 ft 443 kts 354°
2026-04-28 19:47 42.15551 14.97400 38043 ft 443 kts 354°
2026-04-28 19:48 42.21708 14.97212 38039 ft 443 kts 355°
2026-04-28 19:48 42.27862 14.97024 38049 ft 442 kts 355°
2026-04-28 19:49 42.34021 14.96836 38048 ft 442 kts 355°
2026-04-28 19:49 42.40177 14.96647 38048 ft 442 kts 355°
2026-04-28 19:50 42.49363 14.96364 38056 ft 442 kts 355°
2026-04-28 19:51 42.55515 14.96175 38047 ft 442 kts 355°
2026-04-28 19:51 42.61664 14.95985 38050 ft 442 kts 355°
2026-04-28 19:52 42.67803 14.95795 38050 ft 442 kts 355°
2026-04-28 19:52 42.73955 14.95604 38053 ft 442 kts 355°
2026-04-28 19:53 42.80100 14.95413 38054 ft 441 kts 354°
2026-04-28 19:53 42.86245 14.95222 38061 ft 441 kts 354°
2026-04-28 19:54 42.92375 14.95031 38058 ft 440 kts 354°
2026-04-28 19:54 42.98462 14.94841 38060 ft 439 kts 354°
2026-04-28 19:55 43.04567 14.94650 38063 ft 439 kts 354°
2026-04-28 19:55 43.10670 14.94458 38063 ft 438 kts 354°
2026-04-28 19:56 43.16767 14.94266 38063 ft 437 kts 354°
2026-04-28 19:56 43.22850 14.94075 38063 ft 437 kts 354°
2026-04-28 19:57 43.28934 14.93883 38061 ft 437 kts 354°
2026-04-28 19:57 43.35024 14.93690 38058 ft 437 kts 354°
2026-04-28 19:58 43.41104 14.93498 38059 ft 437 kts 354°
2026-04-28 19:58 43.47140 14.93306 38063 ft 437 kts 354°
2026-04-28 19:59 43.53212 14.93113 38061 ft 436 kts 354°
2026-04-28 19:59 43.59282 14.92919 38063 ft 436 kts 354°
2026-04-28 20:00 43.65346 14.92726 38063 ft 436 kts 354°
2026-04-28 20:00 43.71414 14.92532 38064 ft 436 kts 354°
2026-04-28 20:01 43.77483 14.92337 38062 ft 436 kts 354°
2026-04-28 20:01 43.83556 14.92142 38062 ft 436 kts 354°
2026-04-28 20:02 43.89616 14.91946 38066 ft 436 kts 354°
2026-04-28 20:02 43.95636 14.91752 38068 ft 436 kts 354°
2026-04-28 20:03 44.01711 14.91556 38062 ft 436 kts 354°
2026-04-28 20:03 44.07768 14.91359 38064 ft 435 kts 354°
2026-04-28 20:04 44.13814 14.91162 38065 ft 435 kts 354°
2026-04-28 20:04 44.19868 14.90966 38060 ft 435 kts 354°
2026-04-28 20:05 44.25917 14.90769 38062 ft 434 kts 354°
2026-04-28 20:05 44.31955 14.90572 38062 ft 434 kts 354°
2026-04-28 20:06 44.37992 14.90374 38062 ft 434 kts 354°
2026-04-28 20:06 44.44040 14.90176 38063 ft 434 kts 354°
2026-04-28 20:07 44.50029 14.89979 38068 ft 433 kts 354°
2026-04-28 20:07 44.56068 14.89780 38069 ft 433 kts 354°
2026-04-28 20:08 44.62089 14.89581 38070 ft 433 kts 354°
2026-04-28 20:08 44.68122 14.89382 38073 ft 433 kts 353°
2026-04-28 20:09 44.74136 14.89182 38081 ft 432 kts 353°
2026-04-28 20:09 44.80140 14.88983 38074 ft 432 kts 353°
2026-04-28 20:10 44.86143 14.88783 38080 ft 431 kts 353°
2026-04-28 20:10 44.92145 14.88583 38090 ft 431 kts 353°
2026-04-28 20:11 44.98138 14.88383 38092 ft 431 kts 353°
2026-04-28 20:11 45.04141 14.88182 38097 ft 431 kts 353°
2026-04-28 20:12 45.10136 14.87981 38091 ft 431 kts 353°
2026-04-28 20:12 45.16127 14.87779 38091 ft 431 kts 353°
2026-04-28 20:13 45.22123 14.87578 38091 ft 431 kts 353°
2026-04-28 20:13 45.28125 14.87375 38099 ft 431 kts 353°
2026-04-28 20:14 45.34084 14.87173 38100 ft 431 kts 353°
2026-04-28 20:14 45.40090 14.86969 38120 ft 432 kts 353°
2026-04-28 20:15 45.46102 14.86741 38126 ft 430 kts 350°
2026-04-28 20:15 45.52063 14.86084 38140 ft 430 kts 350°
2026-04-28 20:16 45.58025 14.85465 38142 ft 430 kts 350°
2026-04-28 20:16 45.63991 14.84852 38132 ft 429 kts 350°
2026-04-28 20:17 45.69958 14.84238 38139 ft 429 kts 350°
2026-04-28 20:17 45.75909 14.83625 38144 ft 429 kts 350°
2026-04-28 20:18 45.81861 14.83010 38148 ft 429 kts 350°
2026-04-28 20:18 45.87813 14.82393 38147 ft 428 kts 349°
2026-04-28 20:19 45.93762 14.81775 38139 ft 428 kts 349°
2026-04-28 20:19 45.99704 14.81157 38152 ft 428 kts 349°
2026-04-28 20:20 46.05650 14.80537 38140 ft 428 kts 349°
2026-04-28 20:20 46.11553 14.79921 38150 ft 428 kts 349°
2026-04-28 20:21 46.17529 14.79295 38160 ft 427 kts 349°
2026-04-28 20:21 46.23459 14.78673 38163 ft 427 kts 349°
2026-04-28 20:22 46.29386 14.78050 38159 ft 427 kts 350°
2026-04-28 20:22 46.35298 14.77427 38168 ft 426 kts 350°
2026-04-28 20:23 46.41161 14.76809 38144 ft 425 kts 350°
2026-04-28 20:23 46.47071 14.76182 38162 ft 425 kts 350°
2026-04-28 20:24 46.52953 14.75559 38166 ft 423 kts 350°
2026-04-28 20:24 46.58835 14.74934 38169 ft 422 kts 350°
2026-04-28 20:25 46.64692 14.74310 38176 ft 421 kts 350°
2026-04-28 20:25 46.70533 14.73686 38180 ft 420 kts 350°
2026-04-28 20:26 46.76309 14.73068 38173 ft 418 kts 350°
2026-04-28 20:26 46.82120 14.72445 38174 ft 418 kts 350°
2026-04-28 20:27 46.87901 14.71824 38166 ft 416 kts 350°
2026-04-28 20:27 46.93664 14.71203 38171 ft 414 kts 350°
2026-04-28 20:28 46.99418 14.70582 38184 ft 415 kts 350°
2026-04-28 20:28 47.05177 14.69960 38163 ft 415 kts 350°
2026-04-28 20:29 47.10937 14.69335 38142 ft 415 kts 349°
2026-04-28 20:29 47.15718 14.68817 38165 ft 415 kts 349°
2026-04-28 20:30 47.21471 14.68190 38156 ft 415 kts 349°
2026-04-28 20:30 47.27242 14.67560 38157 ft 416 kts 349°
2026-04-28 20:31 47.33029 14.66929 38155 ft 419 kts 349°
2026-04-28 20:31 47.38849 14.66291 38152 ft 419 kts 349°
2026-04-28 20:32 47.44680 14.65650 38150 ft 421 kts 349°
2026-04-28 20:32 47.50533 14.65008 38134 ft 422 kts 349°
2026-04-28 20:33 47.56409 14.64360 38099 ft 423 kts 349°
2026-04-28 20:33 47.62278 14.63711 38129 ft 423 kts 349°
2026-04-28 20:34 47.68153 14.63060 38129 ft 423 kts 349°
2026-04-28 20:34 47.73989 14.62412 38116 ft 424 kts 349°
2026-04-28 20:35 47.79877 14.61757 38142 ft 424 kts 350°
2026-04-28 20:35 47.85753 14.61102 38144 ft 424 kts 349°
2026-04-28 20:36 47.91638 14.60444 38137 ft 424 kts 349°
2026-04-28 20:36 47.97524 14.59785 38145 ft 424 kts 349°
2026-04-28 20:37 48.03414 14.59123 38145 ft 425 kts 349°
2026-04-28 20:37 48.09300 14.58461 38147 ft 425 kts 349°
2026-04-28 20:38 48.15215 14.57794 38151 ft 425 kts 349°
2026-04-28 20:38 48.21124 14.57126 38155 ft 426 kts 349°
2026-04-28 20:39 48.27031 14.56456 38159 ft 426 kts 349°
2026-04-28 20:39 48.32946 14.55784 38156 ft 427 kts 349°
2026-04-28 20:40 48.38881 14.55109 38162 ft 427 kts 349°
2026-04-28 20:40 48.44809 14.54432 38167 ft 428 kts 349°
2026-04-28 20:41 48.50750 14.53753 38164 ft 428 kts 350°
2026-04-28 20:41 48.56664 14.53075 38179 ft 429 kts 350°
2026-04-28 20:42 48.62633 14.52389 38178 ft 430 kts 350°
2026-04-28 20:42 48.68596 14.51702 38189 ft 430 kts 350°
2026-04-28 20:43 48.74566 14.51014 38189 ft 430 kts 350°
2026-04-28 20:43 48.80525 14.50324 38197 ft 429 kts 351°
2026-04-28 20:44 48.86477 14.49634 38191 ft 428 kts 351°
2026-04-28 20:44 48.92382 14.48947 38198 ft 428 kts 351°
2026-04-28 20:45 48.98303 14.48257 38203 ft 427 kts 351°
2026-04-28 20:45 49.04164 14.47113 38181 ft 417 kts 337°
2026-04-28 20:46 49.09627 14.44099 38211 ft 418 kts 336°
2026-04-28 20:46 49.15087 14.41024 38198 ft 418 kts 336°
2026-04-28 20:47 49.20526 14.37913 38199 ft 418 kts 336°
2026-04-28 20:47 49.25974 14.34784 38213 ft 418 kts 336°
2026-04-28 20:48 49.31426 14.31646 38209 ft 419 kts 336°
2026-04-28 20:48 49.36885 14.28496 38214 ft 419 kts 336°
2026-04-28 20:49 49.42333 14.25344 38213 ft 419 kts 336°
2026-04-28 20:49 49.47794 14.22178 38221 ft 419 kts 336°
2026-04-28 20:50 49.53252 14.19006 38220 ft 420 kts 336°
2026-04-28 20:50 49.58715 14.15824 38229 ft 420 kts 336°
2026-04-28 20:51 49.64274 14.12994 38217 ft 425 kts 349°
2026-04-28 20:51 49.67206 14.12961 38240 ft 432 kts
2026-04-28 20:51 49.70206 14.13406 38236 ft 433 kts
2026-04-28 20:52 49.76217 14.14413 38242 ft 435 kts
2026-04-28 20:52 49.82223 14.15522 38249 ft 435 kts
2026-04-28 20:53 49.91241 14.17224 38256 ft 435 kts
2026-04-28 20:53 49.97253 14.18364 38263 ft 435 kts
2026-04-28 20:54 50.03264 14.19507 38264 ft 435 kts
2026-04-28 20:54 50.09270 14.20651 38267 ft 435 kts
2026-04-28 20:55 50.15222 14.21789 38270 ft 434 kts
2026-04-28 20:55 50.21228 14.22939 38268 ft 434 kts
2026-04-28 20:56 50.27227 14.24091 38270 ft 434 kts
2026-04-28 20:56 50.33231 14.25247 38270 ft 434 kts
2026-04-28 20:57 50.39213 14.26401 38274 ft 434 kts
2026-04-28 20:57 50.45209 14.27562 38274 ft 434 kts
2026-04-28 20:58 50.51203 14.28725 38275 ft 433 kts
2026-04-28 20:58 50.57188 14.29889 38283 ft 433 kts
2026-04-28 20:59 50.63171 14.31056 38301 ft 433 kts
2026-04-28 20:59 50.69158 14.32226 38288 ft 433 kts
2026-04-28 21:00 50.75136 14.33398 38293 ft 433 kts
2026-04-28 21:00 50.81076 14.34565 38297 ft 433 kts
2026-04-28 21:01 50.87088 14.35749 38304 ft 432 kts
2026-04-28 21:01 50.93027 14.36682 38293 ft 428 kts 354°
2026-04-28 21:02 50.95916 14.35856 38314 ft 421 kts 341°
2026-04-28 21:02 50.98768 14.34736 38307 ft 424 kts 346°
2026-04-28 21:02 51.04571 14.32953 38311 ft 425 kts 347°
2026-04-28 21:03 51.10383 14.31225 38305 ft 425 kts 347°
2026-04-28 21:03 51.16193 14.29504 38311 ft 424 kts 347°
2026-04-28 21:04 51.21995 14.27781 38311 ft 424 kts 347°
2026-04-28 21:04 51.27766 14.26063 38313 ft 424 kts 347°
2026-04-28 21:05 51.33428 14.24374 38314 ft 424 kts 347°
2026-04-28 21:05 51.39183 14.22652 38314 ft 424 kts 347°
2026-04-28 21:06 51.44988 14.20911 38320 ft 424 kts 347°
2026-04-28 21:06 51.50793 14.19165 38317 ft 424 kts 347°
2026-04-28 21:07 51.56591 14.17417 38317 ft 424 kts 347°
2026-04-28 21:07 51.62384 14.15666 38316 ft 424 kts 348°
2026-04-28 21:08 51.68187 14.13908 38327 ft 424 kts 348°
2026-04-28 21:08 51.73985 14.12146 38326 ft 424 kts 348°
2026-04-28 21:09 51.79786 14.10379 38322 ft 424 kts 348°
2026-04-28 21:09 51.85592 14.08605 38320 ft 425 kts 348°
2026-04-28 21:10 51.91389 14.06830 38319 ft 425 kts 348°
2026-04-28 21:10 51.97168 14.05056 38324 ft 425 kts 348°
2026-04-28 21:11 52.02981 14.03266 38330 ft 425 kts 348°
2026-04-28 21:11 52.08797 14.01471 38322 ft 425 kts 348°
2026-04-28 21:12 52.14608 13.99672 38337 ft 425 kts 348°
2026-04-28 21:12 52.20430 13.97866 38339 ft 425 kts 348°
2026-04-28 21:13 52.26246 13.96056 38335 ft 425 kts 348°
2026-04-28 21:13 52.31895 13.94294 38343 ft 425 kts 348°
2026-04-28 21:14 52.37666 13.92488 38343 ft 425 kts 348°
2026-04-28 21:14 52.43504 13.90658 38349 ft 424 kts 348°
2026-04-28 21:15 52.49269 13.88845 38347 ft 425 kts 348°
2026-04-28 21:15 52.55077 13.87013 38349 ft 425 kts 348°
2026-04-28 21:16 52.60876 13.85180 38353 ft 425 kts 348°
2026-04-28 21:16 52.66678 13.83341 38355 ft 424 kts 348°
2026-04-28 21:17 52.72477 13.81497 38357 ft 424 kts 348°
2026-04-28 21:17 52.78280 13.79648 38358 ft 424 kts 348°
2026-04-28 21:18 52.83099 13.78108 38369 ft 424 kts 349°
2026-04-28 21:18 52.88898 13.76250 38370 ft 424 kts 349°
2026-04-28 21:19 52.94685 13.74391 38366 ft 424 kts 349°
2026-04-28 21:19 53.00480 13.72525 38367 ft 424 kts 349°
2026-04-28 21:20 53.06258 13.70659 38374 ft 423 kts 349°
2026-04-28 21:20 53.12037 13.68788 38379 ft 422 kts 349°
2026-04-28 21:21 53.17809 13.66913 38380 ft 422 kts 349°
2026-04-28 21:21 53.23568 13.65038 38386 ft 421 kts 349°
2026-04-28 21:22 53.29270 13.63176 38389 ft 421 kts 349°
2026-04-28 21:22 53.35024 13.61292 38392 ft 421 kts 349°
2026-04-28 21:23 53.40773 13.59405 38390 ft 420 kts 349°
2026-04-28 21:23 53.46528 13.57510 38393 ft 420 kts 349°
2026-04-28 21:24 53.52249 13.55622 38391 ft 420 kts 349°
2026-04-28 21:24 53.57982 13.53724 38396 ft 419 kts 349°
2026-04-28 21:25 53.63673 13.51835 38401 ft 419 kts 349°
2026-04-28 21:25 53.69389 13.49932 38397 ft 419 kts 349°
2026-04-28 21:26 53.75106 13.48024 38404 ft 418 kts 349°
2026-04-28 21:26 53.80815 13.46112 38403 ft 418 kts 349°
2026-04-28 21:27 53.86527 13.44196 38401 ft 418 kts 349°
2026-04-28 21:27 53.92232 13.42276 38405 ft 418 kts 349°
2026-04-28 21:28 53.97938 13.40350 38408 ft 418 kts 349°
2026-04-28 21:28 54.03643 13.38418 38406 ft 418 kts 349°
2026-04-28 21:29 54.09349 13.36482 38406 ft 418 kts 349°
2026-04-28 21:29 54.15062 13.34537 38416 ft 418 kts 349°
2026-04-28 21:30 54.20728 13.32603 38410 ft 418 kts 349°
2026-04-28 21:30 54.26430 13.30652 38413 ft 418 kts 350°
2026-04-28 21:31 54.32131 13.28695 38410 ft 418 kts 350°
2026-04-28 21:31 54.37838 13.26731 38416 ft 418 kts 350°
2026-04-28 21:32 54.43538 13.24763 38411 ft 418 kts 350°
2026-04-28 21:32 54.49227 13.22794 38410 ft 417 kts 350°
2026-04-28 21:33 54.54912 13.20819 38415 ft 416 kts 350°
2026-04-28 21:33 54.60586 13.18845 38417 ft 416 kts 350°
2026-04-28 21:34 54.66264 13.16862 38419 ft 415 kts 350°
2026-04-28 21:34 54.71929 13.14879 38417 ft 415 kts 350°
2026-04-28 21:35 54.77557 13.12903 38419 ft 414 kts 350°
2026-04-28 21:35 54.83222 13.10908 38419 ft 414 kts 350°
2026-04-28 21:36 54.88863 13.08915 38418 ft 413 kts 350°
2026-04-28 21:36 54.94483 13.06926 38419 ft 413 kts 350°
2026-04-28 21:37 55.00111 13.04926 38417 ft 412 kts 350°
2026-04-28 21:37 55.05691 13.02939 38416 ft 412 kts 350°
2026-04-28 21:38 55.11301 13.00935 38416 ft 411 kts 350°
2026-04-28 21:38 55.16907 12.98927 38413 ft 411 kts 350°
2026-04-28 21:39 55.22507 12.96915 38416 ft 410 kts 350°
2026-04-28 21:39 55.28091 12.94903 38415 ft 410 kts 350°
2026-04-28 21:40 55.33678 12.92885 38409 ft 409 kts 350°
2026-04-28 21:40 55.39222 12.90875 38407 ft 409 kts 350°
2026-04-28 21:41 55.44796 12.88850 38405 ft 409 kts 350°
2026-04-28 21:41 55.50366 12.86820 38404 ft 408 kts 350°
2026-04-28 21:42 55.55937 12.84783 38403 ft 408 kts 350°
2026-04-28 21:42 55.61502 12.82743 38398 ft 408 kts 350°
2026-04-28 21:43 55.65694 12.81203 38399 ft 408 kts 350°
2026-04-28 21:43 55.71257 12.79153 38402 ft 408 kts 350°
2026-04-28 21:44 55.76814 12.77100 38406 ft 408 kts 350°
2026-04-28 21:44 55.82376 12.75039 38410 ft 408 kts 350°
2026-04-28 21:45 55.87933 12.72973 38408 ft 408 kts 350°
2026-04-28 21:45 55.93507 12.70896 38413 ft 408 kts 350°
2026-04-28 21:46 55.99071 12.68816 38417 ft 408 kts 350°
2026-04-28 21:46 56.04639 12.66727 38413 ft 409 kts 350°
2026-04-28 21:47 56.10203 12.64635 38410 ft 408 kts 350°
2026-04-28 21:47 56.15735 12.62549 38406 ft 409 kts 350°
2026-04-28 21:48 56.21299 12.60445 38403 ft 408 kts 350°
2026-04-28 21:48 56.26860 12.58335 38401 ft 409 kts 350°
2026-04-28 21:49 56.32422 12.56218 38408 ft 408 kts 350°
2026-04-28 21:49 56.37976 12.54098 38409 ft 408 kts 350°
2026-04-28 21:50 56.43542 12.51967 38417 ft 408 kts 351°
2026-04-28 21:50 56.49082 12.49840 38430 ft 408 kts 351°
2026-04-28 21:51 56.54639 12.47699 38431 ft 408 kts 350°
2026-04-28 21:51 56.60144 12.45572 38432 ft 407 kts 351°
2026-04-28 21:52 56.65697 12.43422 38430 ft 407 kts 351°
2026-04-28 21:52 56.71222 12.41275 38435 ft 406 kts 351°
2026-04-28 21:53 56.76750 12.39120 38434 ft 405 kts 351°
2026-04-28 21:53 56.82265 12.36964 38441 ft 405 kts 351°
2026-04-28 21:54 56.87769 12.34806 38445 ft 405 kts 351°
2026-04-28 21:54 56.93276 12.32640 38445 ft 404 kts 351°
2026-04-28 21:55 56.98766 12.30474 38447 ft 404 kts 351°
2026-04-28 21:55 57.04273 12.28296 38450 ft 404 kts 351°
2026-04-28 21:56 57.09745 12.26124 38446 ft 403 kts 351°
2026-04-28 21:56 57.15237 12.23937 38456 ft 403 kts 351°
2026-04-28 21:57 57.20688 12.21761 38456 ft 403 kts 351°
2026-04-28 21:57 57.26158 12.19570 38463 ft 402 kts 351°
2026-04-28 21:58 57.31644 12.17367 38449 ft 402 kts 351°
2026-04-28 21:58 57.37116 12.15161 38432 ft 402 kts 351°
2026-04-28 21:59 57.42578 12.12954 38432 ft 402 kts 351°
2026-04-28 22:00 57.50741 12.09642 38422 ft 402 kts 351°
2026-04-28 22:00 57.56191 12.07422 38411 ft 401 kts 351°
2026-04-28 22:01 57.61659 12.05188 38404 ft 401 kts 351°
2026-04-28 22:01 57.67117 12.02952 38414 ft 401 kts 351°
2026-04-28 22:02 57.72551 12.00718 38425 ft 401 kts 351°
2026-04-28 22:02 57.78014 11.98466 38431 ft 401 kts 351°
2026-04-28 22:03 57.83460 11.96213 38434 ft 401 kts 351°
2026-04-28 22:03 57.88905 11.93954 38427 ft 400 kts 351°
2026-04-28 22:04 57.94335 11.91695 38434 ft 400 kts 351°
2026-04-28 22:04 57.99765 11.89428 38436 ft 400 kts 351°
2026-04-28 22:05 58.05202 11.87151 38444 ft 400 kts 351°
2026-04-28 22:05 58.10579 11.84893 38451 ft 400 kts 351°
2026-04-28 22:06 58.16029 11.82596 38447 ft 400 kts 351°
2026-04-28 22:06 58.21454 11.80303 38445 ft 399 kts 351°
2026-04-28 22:07 58.26002 11.78375 38447 ft 399 kts 351°
2026-04-28 22:07 58.31424 11.76070 38446 ft 399 kts 351°
2026-04-28 22:08 58.36837 11.73761 38449 ft 399 kts 351°
2026-04-28 22:08 58.42247 11.71447 38448 ft 398 kts 351°
2026-04-28 22:08 58.44917 11.70302 38311 ft 398 kts 351°
2026-04-28 22:09 58.47634 11.69135 37837 ft 391 kts 351°
2026-04-28 22:09 58.50209 11.68027 37495 ft 382 kts 351°
2026-04-28 22:09 58.52803 11.66898 36924 ft 378 kts 351°
2026-04-28 22:09 58.55371 11.65707 36690 ft 382 kts 351°
2026-04-28 22:10 58.57958 11.64509 36369 ft 384 kts 351°
2026-04-28 22:10 58.60551 11.63311 35988 ft 382 kts 351°
2026-04-28 22:10 58.63128 11.62119 35630 ft 380 kts 351°
2026-04-28 22:10 58.65698 11.60929 35254 ft 377 kts 352°
2026-04-28 22:11 58.68238 11.59751 34685 ft 374 kts 352°
2026-04-28 22:11 58.70761 11.58578 33850 ft 374 kts 352°
2026-04-28 22:11 58.73302 11.57394 33016 ft 375 kts 352°
2026-04-28 22:11 58.75830 11.56215 32274 ft 373 kts 352°
2026-04-28 22:12 58.78344 11.55042 31510 ft 373 kts 351°
2026-04-28 22:12 58.80878 11.53858 30756 ft 373 kts 351°
2026-04-28 22:12 58.83394 11.52681 30053 ft 370 kts 351°
2026-04-28 22:12 58.85882 11.51515 29349 ft 367 kts 351°
2026-04-28 22:13 58.88349 11.50357 28716 ft 362 kts 351°
2026-04-28 22:13 58.90754 11.49226 28092 ft 365 kts 351°
2026-04-28 22:13 58.93293 11.48032 27402 ft 372 kts 350°
2026-04-28 22:13 58.95783 11.46858 26793 ft 375 kts 350°
2026-04-28 22:14 58.98354 11.45643 26151 ft 375 kts 350°
2026-04-28 22:14 58.99957 11.44885 25750 ft 374 kts 350°
2026-04-28 22:14 59.02452 11.43704 25117 ft 371 kts 349°
2026-04-28 22:14 59.04942 11.42524 24490 ft 368 kts 349°
2026-04-28 22:15 59.07418 11.41348 23824 ft 365 kts 349°
2026-04-28 22:15 59.09880 11.40178 23103 ft 362 kts 349°
2026-04-28 22:15 59.12314 11.39019 22450 ft 358 kts 349°
2026-04-28 22:15 59.14711 11.37876 21840 ft 353 kts 349°
2026-04-28 22:16 59.17094 11.36738 21235 ft 351 kts 349°
2026-04-28 22:16 59.19452 11.35611 20630 ft 350 kts 349°
2026-04-28 22:16 59.21837 11.34468 20014 ft 353 kts 349°
2026-04-28 22:16 59.24207 11.33332 19420 ft 352 kts 349°
2026-04-28 22:17 59.26547 11.32208 18830 ft 350 kts 349°
2026-04-28 22:17 59.28950 11.31052 18144 ft 349 kts 348°
2026-04-28 22:17 59.31295 11.29921 17507 ft 345 kts 348°
2026-04-28 22:17 59.33611 11.28805 16931 ft 340 kts 348°
2026-04-28 22:18 59.35896 11.27702 16310 ft 337 kts 348°
2026-04-28 22:18 59.38164 11.26604 15746 ft 334 kts 348°
2026-04-28 22:18 59.40407 11.25518 15184 ft 333 kts 348°
2026-04-28 22:18 59.42656 11.24428 14626 ft 334 kts 348°
2026-04-28 22:19 59.44883 11.23346 14042 ft 335 kts 348°
2026-04-28 22:19 59.47153 11.22242 13417 ft 335 kts 348°
2026-04-28 22:19 59.49440 11.21588 12821 ft 332 kts
2026-04-28 22:19 59.51733 11.21864 12284 ft 330 kts
2026-04-28 22:20 59.54020 11.22248 11759 ft 328 kts
2026-04-28 22:20 59.56268 11.22633 11516 ft 318 kts
2026-04-28 22:20 59.58429 11.23005 11336 ft 305 kts
2026-04-28 22:20 59.60499 11.23361 11151 ft 292 kts
2026-04-28 22:21 59.62486 11.23707 10975 ft 280 kts
2026-04-28 22:21 59.64388 11.24040 10810 ft 269 kts
2026-04-28 22:21 59.66211 11.24000 10626 ft 259 kts 348°
2026-04-28 22:21 59.67850 11.22674 10483 ft 250 kts 335°
2026-04-28 22:22 59.69377 11.21095 10182 ft 247 kts 335°
2026-04-28 22:22 59.70898 11.19519 9783 ft 246 kts 335°
2026-04-28 22:22 59.72406 11.17963 9415 ft 244 kts 335°
2026-04-28 22:22 59.73903 11.16428 9074 ft 238 kts 335°
2026-04-28 22:23 59.75352 11.14948 8757 ft 232 kts 335°
2026-04-28 22:23 59.76750 11.13519 8448 ft 226 kts 335°
2026-04-28 22:23 59.78149 11.12095 8140 ft 226 kts 335°
2026-04-28 22:23 59.79589 11.10818 7833 ft 227 kts 339°
2026-04-28 22:24 59.81064 11.09662 7487 ft 228 kts 340°
2026-04-28 22:24 59.82562 11.08512 6998 ft 235 kts 340°
2026-04-28 22:24 59.84108 11.07337 6544 ft 239 kts 340°
2026-04-28 22:24 59.85635 11.06178 6150 ft 240 kts 340°
2026-04-28 22:25 59.87216 11.04980 5801 ft 236 kts 340°
2026-04-28 22:25 59.88710 11.03845 5650 ft 224 kts 340°
2026-04-28 22:25 59.90163 11.02739 5496 ft 224 kts 340°
2026-04-28 22:25 59.91624 11.01629 5360 ft 225 kts 340°
2026-04-28 22:26 59.93070 11.00532 5073 ft 225 kts 340°
2026-04-28 22:26 59.94547 10.99407 4757 ft 225 kts 340°